This is the latest recevied weather packets stored in our database for station/object SV9TNF-1. If no packets are shown the sender has not sent any weather packets the latest 1 day(s).
| Time | Temp. | Humidity | Pressure | Rain* | Wind** | Luminosity | Snow |
|---|---|---|---|---|---|---|---|
| 1778017812 | 17.22° C | 38% | 1005.1 hPa | 0 mm | 10.73 m/s, 312° | - | - |
| 1778017512 | 17.22° C | 37% | 1005.1 hPa | 0 mm | 12.52 m/s, 323° | - | - |
| 1778017212 | 17.22° C | 37% | 1005.1 hPa | 0 mm | 12.07 m/s, 270° | - | - |
| 1778016912 | 16.67° C | 39% | 1005.1 hPa | 0 mm | 12.07 m/s, 24° | - | - |
| 1778016612 | 16.67° C | 39% | 1005.1 hPa | 0 mm | 8.49 m/s, 332° | - | - |
| 1778016312 | 17.22° C | 38% | 1005.1 hPa | 0 mm | 10.28 m/s, 323° | - | - |
| 1778016012 | 16.67° C | 37% | 1005.1 hPa | 0 mm | 9.83 m/s, 339° | - | - |
| 1778015711 | 16.67° C | 39% | 1005.1 hPa | 0 mm | 9.83 m/s, 292° | - | - |
| 1778015411 | 16.67° C | 39% | 1005.1 hPa | 0 mm | 12.52 m/s, 299° | - | - |
| 1778015111 | 16.67° C | 39% | 1005.1 hPa | 0 mm | 13.41 m/s, 352° | - | - |
| 1778014815 | 16.67° C | 38% | 1005.1 hPa | 0 mm | 8.94 m/s, 318° | - | - |
| 1778014511 | 17.22° C | 38% | 1005.1 hPa | 0 mm | 10.28 m/s, 323° | - | - |
| 1778014211 | 17.22° C | 37% | 1005.1 hPa | 0 mm | 11.62 m/s, 262° | - | - |
| 1778013911 | 17.22° C | 36% | 1005.1 hPa | 0 mm | 8.94 m/s, 305° | - | - |
| 1778013611 | 17.22° C | 36% | 1005.1 hPa | 0 mm | 11.18 m/s, 309° | - | - |
| 1778013311 | 17.22° C | 36% | 1005.4 hPa | 0 mm | 10.28 m/s, 308° | - | - |
| 1778013011 | 17.78° C | 35% | 1005.4 hPa | 0 mm | 9.39 m/s, 327° | - | - |
| 1778012711 | 17.78° C | 34% | 1005.4 hPa | 0 mm | 10.73 m/s, 309° | - | - |
| 1778012410 | 17.78° C | 34% | 1005.4 hPa | 0 mm | 12.07 m/s, 283° | - | - |
| 1778012110 | 18.33° C | 33% | 1005.4 hPa | 0 mm | 11.18 m/s, 313° | - | - |
| 1778011810 | 18.33° C | 32% | 1005.4 hPa | 0 mm | 9.83 m/s, 263° | - | - |
| 1778011510 | 18.33° C | 32% | 1005.4 hPa | 0 mm | 10.73 m/s, 249° | - | - |
| 1778011210 | 17.78° C | 34% | 1005.4 hPa | 0 mm | 10.28 m/s, 328° | - | - |
| 1778010910 | 17.78° C | 35% | 1005.4 hPa | 0 mm | 8.49 m/s, 317° | - | - |
| 1778010610 | 17.78° C | 34% | 1005.4 hPa | 0 mm | 8.94 m/s, 304° | - | - |
* Rain latest hour (hover to see other rain measurements)
** Current wind speed in m/s (hover to see current wind gust speed)